White Plains, CT

6:40 PM EDT on August 18, 2017 (GMT -0400)
Westchester County

Weather History for KHPN - April, 2014

Change the Weather History Date:

Wednesday, April 9, 2014

  Actual Average Record
Temperature  
Mean Temperature 48 °F -  
Max Temperature 60 °F 54 °F 82 °F (1991)
Min Temperature 36 °F 37 °F 21 °F (1977)
Degree Days  
Heating Degree Days 18    
Moisture  
Dew Point 26 °F    
Average Humidity 47    
Maximum Humidity 86    
Minimum Humidity 25    
Precipitation  
Precipitation 0.00 in - - ()
Sea Level Pressure  
Sea Level Pressure 29.75 in    
Wind  
Wind Speed 10 mph (NW)    
Max Wind Speed 26 mph    
Max Gust Speed 36 mph    
Visibility 10 miles    
Events      
Averages and records for this station are not official NWS values.
T = Trace of Precipitation, MM = Missing Value Source: NWS Daily Summary

Daily Weather History Graph

Daily Weather History Graph

Search for Another Location

Airport or City:

Trip Planner

Search our weather history database for the weather conditions in past years. The results will help you decide how hot, cold, wet, or windy it might be!

Date:

Astronomy

Apr. 09, 2014 Rise Set
Actual Time 6:25 AM EDT 7:28 PM EDT
Civil Twilight 5:57 AM EDT 7:56 PM EDT
Nautical Twilight 5:23 AM EDT 8:30 PM EDT
Astronomical Twilight 4:48 AM EDT 9:05 PM EDT
Moon 2:11 PM EDT (4/9) 3:15 AM EDT (4/9)
Length of Visible Light 13h 59m
Length of Day
13h 03m
Waxing Gibbous, 71% of the Moon is Illuminated
Apr 9
Waxing Gibbous
Apr 15
Full
Apr 22
Last Quarter
Apr 29
New
May 6
First Quarter

Hourly Weather History & Observations

Time (EDT) Temp. Windchill Dew Point Humidity Pressure Visibility Wind Dir Wind Speed Gust Speed Precip Events Conditions
12:56 AM 45.0 °F 40.1 °F 32.0 °F 60% 29.64 in 10.0 mi NW 9.2 mph - N/A   Clear
1:56 AM 43.0 °F 38.8 °F 30.9 °F 62% 29.63 in 10.0 mi NW 6.9 mph - N/A   Clear
2:56 AM 43.0 °F 37.7 °F 32.0 °F 65% 29.61 in 10.0 mi WNW 9.2 mph - N/A   Clear
3:56 AM 39.0 °F - 30.0 °F 70% 29.61 in 10.0 mi Calm Calm - N/A   Clear
4:56 AM 37.9 °F - 30.9 °F 76% 29.63 in 10.0 mi Calm Calm - N/A   Clear
5:56 AM 36.0 °F 33.3 °F 30.0 °F 79% 29.65 in 10.0 mi WNW 3.5 mph - N/A   Clear
6:56 AM 36.0 °F 33.3 °F 32.0 °F 86% 29.67 in 10.0 mi NW 3.5 mph - N/A   Clear
7:56 AM 44.1 °F 39.0 °F 34.0 °F 68% 29.70 in 10.0 mi WNW 9.2 mph - N/A   Clear
8:56 AM 48.0 °F - 34.0 °F 58% 29.70 in 10.0 mi WNW 6.9 mph - N/A   Clear
9:56 AM 51.1 °F - 33.1 °F 50% 29.70 in 10.0 mi WNW 10.4 mph - N/A   Clear
10:56 AM 54.0 °F - 33.1 °F 45% 29.71 in 10.0 mi WNW 11.5 mph 21.9 mph N/A   Clear
11:56 AM 55.0 °F - 30.9 °F 40% 29.71 in 10.0 mi WNW 16.1 mph 20.7 mph N/A   Scattered Clouds
12:56 PM 55.9 °F - 30.0 °F 37% 29.72 in 10.0 mi NW 15.0 mph - N/A   Scattered Clouds
1:56 PM 59.0 °F - 25.0 °F 27% 29.72 in 10.0 mi WNW 18.4 mph 25.3 mph N/A   Mostly Cloudy
2:56 PM 59.0 °F - 23.0 °F 25% 29.72 in 10.0 mi WNW 20.7 mph 29.9 mph N/A   Mostly Cloudy
3:56 PM 57.9 °F - 23.0 °F 26% 29.73 in 10.0 mi NW 23.0 mph 29.9 mph N/A   Scattered Clouds
4:56 PM 55.9 °F - 21.0 °F 26% 29.75 in 10.0 mi NW 23.0 mph 32.2 mph N/A   Scattered Clouds
5:56 PM 53.1 °F - 19.0 °F 26% 29.79 in 10.0 mi WNW 26.5 mph 35.7 mph N/A   Partly Cloudy
6:56 PM 51.1 °F - 19.9 °F 29% 29.82 in 10.0 mi WNW 19.6 mph 25.3 mph N/A   Clear
7:56 PM 48.0 °F - 21.0 °F 34% 29.87 in 10.0 mi NW 11.5 mph - N/A   Clear
8:56 PM 46.0 °F 41.0 °F 21.0 °F 37% 29.91 in 10.0 mi WNW 10.4 mph - N/A   Clear
9:56 PM 45.0 °F 40.1 °F 19.0 °F 36% 29.96 in 10.0 mi WNW 9.2 mph - N/A   Clear
10:56 PM 44.1 °F 38.6 °F 12.9 °F 28% 29.99 in 10.0 mi NW 10.4 mph - N/A   Clear
11:56 PM 42.1 °F 35.7 °F 14.0 °F 32% 30.02 in 10.0 mi WNW 11.5 mph - N/A   Clear